Regional Weather Roundup
Issued by NWS

Current Version | Previous Version | Text Only | Print | Product List | Glossary On
Versions: 1 2 3 4 5 6 7 8 9 10 11 12 13 14 15 16 17 18 19 20 21 22 23 24 25 26 27 28 29 30 31 32 33 34 35 36 37 38 39 40 41 42 43 44 45 46 47 48 49 50
000
ASCA42 TJSJ 210911
RWRPR
PUERTO RICO/U.S. VIRGIN ISLANDS HOURLY WEATHER ROUNDUP
NATIONAL WEATHER SERVICE SAN JUAN PR
500 AM AST TUE OCT 21 2014

PRZ001-004-211000-
PUERTO RICO

CITY           SKY/WX    TMP DP  RH WIND       PRES   REMARKS
SAN JUAN LMM   PTCLDY    79  73  83 CALM      29.91S
PONCE          PTCLDY    72  70  94 CALM      29.89S
CEIBA          CLEAR     81  73  78 E5        29.93S
$$

PRZ006-007-211000-
U.S. VIRGIN ISLANDS

CITY           SKY/WX    TMP DP  RH WIND       PRES   REMARKS
CHRISTIANSTED  CLEAR     75  72  88 NE6       29.91S
$$

HOURLY WEATHER ROUNDUP FOR THE NEWS MEDIA

CITY           SKY/WX    TMP DP  RH WIND       PRES   REMARKS
MIAMI          CLOUDY    76  71  85 SE6       29.91S
ORLANDO        CLOUDY    73  68  84 CALM      29.93F
NEW YORK       CLOUDY    56  46  69 SW3       29.91F
NEWARK         CLOUDY    54  45  71 CALM      29.90F
CHICAGO        CLOUDY    50  40  68 N10       30.02R
HARTFORD       MOCLDY    45  43  93 CALM      29.97S
BOSTON         CLOUDY    51  48  89 SE5       29.98S
DALLAS         PTCLDY    62  58  86 CALM      30.04S
PHILADELPHIA   CLOUDY    54  48  80 CALM      29.89F



USA.gov is the U.S. government's official web portal to all federal, state and local government web resources and services.